Weather Roundup
Issued by NWS

Home | Current Version | Previous Version | Graphics & Text | Print | Product List | Glossary Off
Versions: 1 2 3 4 5 6 7 8 9 10 11 12 13 14 15 16 17 18 19 20 21 22 23 24 25 26 27 28 29 30 31 32 33 34 35 36 37 38 39 40 41 42 43 44 45 46 47 48 49 50

367
NZUS93 KARX 311559
HRRWXR

CURRENT HOURLY OBSERVATIONS ACROSS
MUCH OF THE UPPER MISSISSIPPI VALLEY
NATIONAL WEATHER SERVICE LA CROSSE WI
1100 AM CDT TUE MAY 31 2016


...SOUTHEAST MINNESOTA...


CITY           SKY/WX    TMP DP  RH WIND       PRES   REMARKS
ROCHESTER      CLOUDY    72  62  71 S17       29.91F
ROCHESTER/MAYO CLOUDY    71  59  66 S12G18    29.91F
WINONA         CLOUDY    77  61  57 S5        29.90F
AUSTIN         MOSUNNY   72  63  73 S10       29.90F
ALBERT LEA     PTSUNNY   72  63  73 S9        29.89R
DODGE CENTER   CLOUDY    72  61  68 S15       29.89F
PRESTON        CLOUDY    73  59  62 SW13      29.93S
OWATONNA       LGT RAIN  70  63  78 SW9       29.90R
FARIBAULT      NOT AVBL
$$

...ELSEWHERE IN MINNESOTA...


CITY           SKY/WX    TMP DP  RH WIND       PRES   REMARKS
MINNEAPOLIS    CLOUDY    68  61  78 S7        29.87F
INTNL FALLS    RAIN      49  46  90 E16G24    29.89F FOG
DULUTH         LGT RAIN  45  42  89 E17G29    29.94F
RED WING       CLOUDY    70  61  73 CALM      29.88R
REDWOOD FALLS  CLOUDY    65  55  70 W15G24    29.86S
MANKATO        CLOUDY    66  61  82 SW13      29.89R
WORTHINGTON    CLOUDY    62  56  80 NW12      29.92R
FAIRMONT       CLOUDY    64  57  77 W10       29.91R
$$

...SOUTHWEST WISCONSIN...


CITY           SKY/WX    TMP DP  RH WIND       PRES   REMARKS
LA CROSSE      CLOUDY    77  62  59 S13       29.91F
PRAIRIE DU CHI SUNNY     72  63  72 CALM      29.92F
BOSCOBEL       NOT AVBL
LONE ROCK      NOT AVBL
PLATTEVILLE    CLOUDY    71  64  79 S9        29.97R
FORT MC COY    CLOUDY    73  61  66 SE6       29.95S
MAUSTON-NEW LI CLOUDY    76  60  57 S8        29.95F
VIROQUA        FAIR      73  63  71 SE12      29.95F
WIS DELLS      CLOUDY    75  48  39 SE13      29.97S
$$

...ELSEWHERE IN WISCONSIN...


CITY           SKY/WX    TMP DP  RH WIND       PRES   REMARKS
MILWAUKEE      MOSUNNY   64  56  75 NE8       30.03S
MADISON        PTSUNNY   76  51  41 SE15      29.96S
GREEN BAY      SUNNY     66  54  65 E12       30.05S
EAU CLAIRE     NOT AVBL
BLACK RVR FLS  FAIR      76  58  54 SE10      29.94S
MEDFORD        CLOUDY    64  56  75 SE12      29.99S
WAUSAU         PTSUNNY   68  53  58 E14       29.99F
WIS RAPIDS     MOSUNNY   75  55  49 SE13G18   29.99S
MARSHFIELD     CLOUDY    71  58  63 SE15G21   29.97F
RICE LAKE      CLOUDY    63  60  90 E9        29.93F
$$

...NORTHEAST IOWA...


CITY           SKY/WX    TMP DP  RH WIND       PRES   REMARKS
WATERLOO       MOSUNNY   76  62  62 S8        29.91S
DUBUQUE        CLOUDY    73  67  81 S9        29.96F
DECORAH        SUNNY     73  63  68 S8G17     29.92F
MASON CITY     PTSUNNY   73  66  78 S9        29.91F
CHARLES CITY   CLOUDY    73  66  78 S12       29.92F
OELWEIN        SUNNY     73  64  73 S12       29.94F
$$

...ELSEWHERE IN IOWA...


CITY           SKY/WX    TMP DP  RH WIND       PRES   REMARKS
DES MOINES     CLOUDY    76  61  59 S13       29.92S
IOWA CITY      SUNNY     75  64  68 SE8       29.95F
FORT DODGE     CLOUDY    75  63  64 SW6       29.92R
MARSHALLTOWN   MOSUNNY   76  62  62 S12       29.91F
CEDAR RAPIDS   SUNNY     76  64  66 S12       29.93S
$$

...NORTHERN ILLINOIS...


CITY           SKY/WX    TMP DP  RH WIND       PRES   REMARKS
CHICAGO-OHARE  PTSUNNY   80  55  42 E13G18    29.98F
CHICAGO-MIDWAY PTSUNNY   81  57  43 E12G18    29.98F
MOLINE         CLOUDY    76  63  64 VRB3      29.95F
ROCKFORD       PTSUNNY   78  58  49 SW13G23   30.01R
PEORIA         CLOUDY    78  62  57 W8        29.97S
$$

NOTE: "FAIR" INDICATES FEW OR NO CLOUDS BELOW 12,000 FEET WITH NO
SIGNIFICANT WEATHER AND/OR OBSTRUCTIONS TO VISIBILITY. WIND
SPEEDS ARE IN MILES-PER-HOUR.




USA.gov is the U.S. government's official web portal to all federal, state and local government web resources and services.